Change the Weather History Date:

Thursday, April 3, 2014

  Actual Average Record
Temperature  
Mean Temperature 38 °F 49 °F  
Max Temperature 42 °F 61 °F 89 °F (1929)
Min Temperature 33 °F 37 °F 14 °F (1975)
Degree Days  
Heating Degree Days 27 16  
Month to date heating degree days 77 49  
Since 1 July heating degree days 5355 4940  
Cooling Degree Days 0 0  
Month to date cooling degree days 0 0  
Year to date cooling degree days 0 1  
Moisture  
Dew Point 39 °F    
Average Humidity 96    
Maximum Humidity 100    
Minimum Humidity 92    
Precipitation  
Precipitation 0.33 in 0.08 in 1.28 in (1945)
Month to date precipitation 0.43 0.23  
Year to date precipitation 1.85 3.61  
Snow  
Snow T in 0.00 in 2.40 in (1950)
Month to date snowfall T 0.1  
Year to date snowfall 16.9 13.3  
Since 1 July snowfall 23.2 19.8  
Snow Depth 0.00 in    
Sea Level Pressure  
Sea Level Pressure 29.73 in    
Wind  
Wind Speed 16 mph (North)    
Max Wind Speed 28 mph    
Max Gust Speed 35 mph    
Visibility 4 miles    
Events Rain , Snow , Thunderstorm    
T = Trace of Precipitation, MM = Missing Value Source: NWS Daily Summary

Daily Weather History Graph

Daily Weather History Graph

Search for Another Location

Airport or City:

Trip Planner

Search our weather history database for the weather conditions in past years. The results will help you decide how hot, cold, wet, or windy it might be!

Date:

Astronomy

Apr. 03, 2014 Rise Set
Actual Time 7:11 AM CDT 7:56 PM CDT
Civil Twilight 6:44 AM CDT 8:23 PM CDT
Nautical Twilight 6:12 AM CDT 8:56 PM CDT
Astronomical Twilight 5:39 AM CDT 9:29 PM CDT
Moon 9:42 AM CDT (4/3) No Moon Set
Length of Visible Light 13h 39m
Length of Day
12h 45m
Waxing Crescent, 17% of the Moon is Illuminated
Apr 3
Waxing Crescent
Apr 7
First Quarter
Apr 15
Full
Apr 22
Last Quarter
Apr 29
New

Hourly Weather History & Observations

Time (CDT) Temp. Windchill Dew Point Humidity Pressure Visibility Wind Dir Wind Speed Gust Speed Precip Events Conditions
12:06 AM 42.1 °F 35.2 °F 42.1 °F 100% 29.66 in 3.0 mi ENE 12.7 mph - 0.00 in Thunderstorm Overcast
12:24 AM 42.1 °F 34.9 °F 42.1 °F 100% 29.65 in 3.0 mi North 13.8 mph - 0.01 in Rain , Thunderstorm Light Rain
12:33 AM 42.1 °F 35.7 °F 42.1 °F 100% 29.66 in 4.0 mi NE 11.5 mph - 0.01 in Rain , Thunderstorm Light Thunderstorms and Rain
12:55 AM 42.1 °F 35.2 °F 42.1 °F 100% 29.70 in 4.0 mi North 12.7 mph - 0.02 in Rain , Thunderstorm Light Thunderstorms and Rain
1:10 AM 41.0 °F 33.5 °F 41.0 °F 100% 29.66 in 2.5 mi NE 13.8 mph - 0.13 in Rain , Thunderstorm Thunderstorms and Rain
1:19 AM 42.1 °F 34.9 °F 42.1 °F 100% 29.67 in 4.0 mi NE 13.8 mph 23.0 mph 0.14 in Rain , Thunderstorm Light Thunderstorms and Rain
1:27 AM 42.1 °F 36.1 °F 42.1 °F 100% 29.66 in 3.0 mi NE 10.4 mph - 0.17 in Rain , Thunderstorm Thunderstorms and Rain
1:33 AM 42.1 °F 35.7 °F 42.1 °F 100% 29.66 in 4.0 mi ENE 11.5 mph - 0.19 in Rain , Thunderstorm Light Rain
1:39 AM 42.1 °F 33.6 °F 42.1 °F 100% 29.69 in 5.0 mi NW 18.4 mph 24.2 mph 0.19 in Rain Light Rain
1:55 AM 42.1 °F 35.2 °F 42.1 °F 100% 29.68 in 7.0 mi NNW 12.7 mph - 0.19 in Rain Light Rain
2:04 AM 42.1 °F 36.6 °F 42.1 °F 100% 29.67 in 7.0 mi NNE 9.2 mph - 0.00 in   Overcast
2:23 AM 41.0 °F 33.5 °F 41.0 °F 100% 29.65 in 8.0 mi NNE 13.8 mph - 0.00 in   Overcast
2:55 AM 41.0 °F 33.5 °F 41.0 °F 100% 29.68 in 8.0 mi NNE 13.8 mph - 0.00 in   Overcast
3:44 AM 39.2 °F 29.6 °F 39.2 °F 100% 29.66 in 3.0 mi NNE 19.6 mph - N/A Rain Light Rain
3:55 AM 39.9 °F 32.5 °F 39.9 °F 100% 29.67 in 3.0 mi NNE 12.7 mph 26.5 mph 0.01 in Rain Light Rain
4:55 AM 41.0 °F 32.5 °F 39.9 °F 96% 29.67 in 3.0 mi NNE 17.3 mph 20.7 mph 0.01 in Rain Light Rain
5:24 AM 39.9 °F 31.4 °F 39.9 °F 100% 29.67 in 2.5 mi NNE 16.1 mph - 0.00 in Rain Light Rain
5:55 AM 39.9 °F 31.8 °F 39.9 °F 100% 29.68 in 2.5 mi NNE 15.0 mph - 0.01 in Rain Light Rain
6:55 AM 39.9 °F 31.8 °F 39.9 °F 100% 29.69 in 2.0 mi NNE 15.0 mph - 0.00 in   Overcast
7:11 AM 39.9 °F 31.4 °F 39.9 °F 100% 29.67 in 1.8 mi NNE 16.1 mph - N/A   Overcast
7:39 AM 39.9 °F 31.8 °F 39.9 °F 100% 29.68 in 1.2 mi NNE 15.0 mph - N/A   Overcast
7:53 AM 39.2 °F 31.2 °F 39.2 °F 100% 29.67 in 0.8 mi NNE 13.8 mph - N/A   Overcast
7:55 AM 39.9 °F 32.1 °F 39.9 °F 100% 29.69 in 0.8 mi NNE 13.8 mph - N/A   Overcast
8:18 AM 39.9 °F 33.4 °F 39.9 °F 100% 29.68 in 1.0 mi North 10.4 mph - N/A   Overcast
8:55 AM 39.9 °F 32.5 °F 39.9 °F 100% 29.70 in 1.2 mi North 12.7 mph - N/A   Overcast
9:55 AM 39.9 °F 32.9 °F 39.9 °F 100% 29.69 in 1.2 mi North 11.5 mph - N/A   Overcast
10:08 AM 41.0 °F 33.5 °F 41.0 °F 100% 29.68 in 1.5 mi North 13.8 mph - N/A   Overcast
10:16 AM 41.0 °F 33.5 °F 39.9 °F 96% 29.69 in 1.8 mi North 13.8 mph - N/A   Overcast
10:35 AM 41.0 °F 33.9 °F 41.0 °F 100% 29.69 in 1.5 mi North 12.7 mph - 0.00 in Rain Light Rain
10:45 AM 41.0 °F 33.5 °F 41.0 °F 100% 29.69 in 1.2 mi North 13.8 mph - 0.00 in Rain Light Rain
10:55 AM 41.0 °F 33.9 °F 41.0 °F 100% 29.70 in 1.0 mi North 12.7 mph - 0.00 in Rain Light Rain
11:55 AM 39.9 °F 32.5 °F 39.9 °F 100% 29.71 in 1.2 mi North 12.7 mph - 0.01 in Rain Light Rain
12:10 PM 39.9 °F 32.1 °F 39.9 °F 100% 29.68 in 1.5 mi North 13.8 mph 23.0 mph 0.00 in Rain Light Rain
12:26 PM 39.9 °F 32.5 °F 39.9 °F 100% 29.69 in 2.0 mi North 12.7 mph 23.0 mph 0.00 in Rain Light Rain
12:36 PM 39.9 °F 31.8 °F 39.0 °F 97% 29.69 in 2.0 mi North 15.0 mph 21.9 mph 0.00 in Rain Light Rain
12:43 PM 39.9 °F 31.4 °F 39.0 °F 97% 29.69 in 3.0 mi North 16.1 mph - 0.00 in Rain Light Rain
12:55 PM 39.9 °F 32.5 °F 39.0 °F 97% 29.71 in 4.0 mi North 12.7 mph - 0.00 in Rain Light Rain
1:09 PM 39.9 °F 31.8 °F 39.0 °F 97% 29.69 in 4.0 mi North 15.0 mph 24.2 mph 0.00 in Rain Light Rain
1:55 PM 41.0 °F 33.5 °F 39.0 °F 93% 29.71 in 7.0 mi NNE 13.8 mph - 0.00 in   Overcast
2:55 PM 39.9 °F 31.4 °F 39.0 °F 97% 29.73 in 4.0 mi North 16.1 mph - N/A   Overcast
3:45 PM 39.0 °F 29.9 °F 39.0 °F 100% 29.70 in 3.0 mi North 17.3 mph - 0.00 in Rain Light Rain
3:52 PM 39.2 °F 31.2 °F 37.4 °F 93% 29.71 in 6.0 mi North 13.8 mph 23.0 mph 0.00 in Rain Light Rain
3:55 PM 39.9 °F 31.8 °F 39.0 °F 97% 29.73 in 6.0 mi NNW 15.0 mph - 0.00 in   Overcast
4:31 PM 39.0 °F 29.6 °F 37.0 °F 93% 29.72 in 10.0 mi North 18.4 mph 24.2 mph 0.00 in   Overcast
4:55 PM 39.0 °F 29.3 °F 37.0 °F 93% 29.76 in 4.0 mi NNW 19.6 mph 25.3 mph 0.00 in Rain Light Rain
5:11 PM 39.0 °F 30.3 °F 37.0 °F 93% 29.74 in 5.0 mi North 16.1 mph 25.3 mph 0.00 in Rain Light Rain
5:20 PM 37.9 °F 28.5 °F 37.0 °F 97% 29.74 in 3.0 mi North 17.3 mph 28.8 mph 0.00 in Rain Light Rain
5:34 PM 37.9 °F 27.9 °F 37.0 °F 97% 29.74 in 2.5 mi North 19.6 mph 31.1 mph 0.00 in Rain Light Rain
5:50 PM 37.4 °F 26.4 °F 35.6 °F 93% 29.76 in 3.0 mi North 23.0 mph 31.1 mph 0.00 in Rain Light Rain
5:55 PM 37.0 °F 26.4 °F 36.0 °F 96% 29.78 in 6.0 mi North 20.7 mph 31.1 mph 0.00 in Rain Light Rain
6:29 PM 37.0 °F 26.4 °F 36.0 °F 96% 29.79 in 4.0 mi NNW 20.7 mph 26.5 mph 0.00 in Rain Light Rain
6:42 PM 37.0 °F 28.1 °F 35.1 °F 93% 29.81 in 10.0 mi North 15.0 mph 27.6 mph 0.00 in   Overcast
6:55 PM 37.0 °F 28.9 °F 36.0 °F 96% 29.85 in 4.0 mi NNW 12.7 mph - 0.00 in Rain Light Rain
7:05 PM 37.0 °F 27.4 °F 36.0 °F 96% 29.82 in 2.5 mi NNW 17.3 mph - 0.00 in Rain Light Rain
7:14 PM 37.0 °F 26.7 °F 35.1 °F 93% 29.82 in 3.0 mi NNW 19.6 mph 24.2 mph 0.00 in Rain Light Rain
7:34 PM 37.0 °F 27.7 °F 34.0 °F 89% 29.83 in 10.0 mi NNW 16.1 mph 25.3 mph 0.00 in Rain Light Rain
7:41 PM 37.0 °F 27.7 °F 34.0 °F 89% 29.84 in 10.0 mi NNW 16.1 mph 25.3 mph 0.00 in   Overcast
7:44 PM 37.0 °F 27.0 °F 34.0 °F 89% 29.84 in 10.0 mi NNW 18.4 mph 25.3 mph 0.00 in   Overcast
7:55 PM 37.0 °F 27.4 °F 34.0 °F 89% 29.88 in 10.0 mi NNW 17.3 mph 27.6 mph 0.00 in Rain Light Rain
8:22 PM 36.0 °F 27.1 °F 35.1 °F 97% 29.87 in 10.0 mi NW 13.8 mph - 0.01 in Rain Light Rain
8:53 PM 33.8 °F 23.5 °F 33.8 °F 100% 29.89 in 4.0 mi NW 16.1 mph 24.2 mph 0.03 in Snow Light Snow
8:55 PM 34.0 °F 23.4 °F 33.1 °F 96% 29.91 in 4.0 mi NW 17.3 mph 24.2 mph 0.04 in Snow Light Snow
10:55 PM 34.0 °F 23.4 °F 33.1 °F 96% 29.95 in 4.0 mi WNW 17.3 mph - 0.02 in Snow Light Snow
11:28 PM 35.1 °F 23.5 °F 33.1 °F 92% 29.93 in 10.0 mi NW 21.9 mph 29.9 mph 0.01 in   Overcast
11:55 PM 35.1 °F 22.7 °F 33.1 °F 92% 29.96 in 10.0 mi NW 25.3 mph 34.5 mph 0.01 in   Overcast